When you browse on this site, cookies collect data to enhance your experience and personalize the content and advertising you see.
Visit our Privacy Policy to learn more. By continuing to use the site, you agree to this use of cookies and data.
  • In Switzerland
  • List of Countries
  • For 7 days
  • Water Temperature
  • Weather Map
  • Weather Widgets
  • user-avatar
    Login

    Hourly Weather Krutovka

    Today, 18 February, Tuesday

    Time Temperature Precipitation Wind Pressure Humidity
    00:00 -1°C° 0.7 mm 7 mps 745 mmHg 90%
    01:00 -1°C° 0.7 mm 6 mps 745 mmHg 94%
    02:00 0°C° 0.7 mm 5 mps 745 mmHg 98%
    03:00 0°C° 0.9 mm 5 mps 745 mmHg 98%
    04:00 0°C° 0.9 mm 5 mps 745 mmHg 98%
    05:00 0°C° 0.9 mm 5 mps 745 mmHg 99%
    06:00 0°C° 0.3 mm 5 mps 745 mmHg 99%
    07:00 0°C° 0.3 mm 5 mps 745 mmHg 99%
    08:00 0°C° 0.3 mm 5 mps 745 mmHg 99%
    09:00 0°C° 0.2 mm 4 mps 745 mmHg 99%
    10:00 0°C° 0.2 mm 4 mps 744 mmHg 99%
    11:00 0°C° 0.2 mm 4 mps 744 mmHg 99%
    12:00 0°C° 0.8 mm 4 mps 744 mmHg 99%
    13:00 0°C° 0.8 mm 3 mps 744 mmHg 99%
    14:00 0°C° 0.8 mm 3 mps 743 mmHg 99%
    15:00 0°C° 0.8 mm 3 mps 743 mmHg 99%
    16:00 0°C° 0.8 mm 3 mps 743 mmHg 98%
    17:00 0°C° 0.8 mm 3 mps 742 mmHg 98%
    18:00 0°C° 0.6 mm 3 mps 742 mmHg 98%
    19:00 0°C° 0.6 mm 3 mps 742 mmHg 98%
    20:00 +1°C° 0.6 mm 2 mps 742 mmHg 99%
    21:00 +1°C° 0.3 mm 2 mps 742 mmHg 99%
    22:00 +1°C° 0.3 mm 2 mps 742 mmHg 99%
    23:00 +1°C° 0.3 mm 2 mps 741 mmHg 99%

    Tomorrow, 19 February, Wednesday

    Time Temperature Precipitation Wind Pressure Humidity
    00:00 0°C° 0.1 mm 3 mps 741 mmHg 98%
    01:00 0°C° 0.1 mm 3 mps 742 mmHg 98%
    02:00 0°C° 0.1 mm 3 mps 742 mmHg 98%
    03:00 -1°C° 0 mm 4 mps 742 mmHg 98%
    04:00 -1°C° 0 mm 4 mps 741 mmHg 97%
    05:00 -1°C° 0 mm 4 mps 741 mmHg 97%
    06:00 -1°C° 0 mm 4 mps 742 mmHg 96%
    07:00 -1°C° 0 mm 4 mps 742 mmHg 96%
    08:00 -1°C° 0 mm 5 mps 743 mmHg 95%
    09:00 -1°C° 0 mm 5 mps 743 mmHg 95%
    10:00 -1°C° 0 mm 5 mps 743 mmHg 94%
    11:00 -1°C° 0 mm 5 mps 743 mmHg 94%
    12:00 -1°C° 0 mm 5 mps 743 mmHg 95%
    13:00 -1°C° 0 mm 4 mps 743 mmHg 95%
    14:00 -1°C° 0 mm 4 mps 743 mmHg 96%
    15:00 -1°C° 0 mm 4 mps 743 mmHg 94%
    16:00 -1°C° 0 mm 4 mps 743 mmHg 92%
    17:00 0°C° 0 mm 3 mps 743 mmHg 90%
    18:00 0°C° 0 mm 3 mps 744 mmHg 89%
    19:00 0°C° 0 mm 3 mps 744 mmHg 89%
    20:00 0°C° 0 mm 3 mps 745 mmHg 88%
    21:00 0°C° 0 mm 3 mps 745 mmHg 89%
    22:00 0°C° 0 mm 3 mps 745 mmHg 90%
    23:00 -1°C° 0 mm 2 mps 745 mmHg 91%

    Day after tomorrow, 20 February, Thursday

    Time Temperature Precipitation Wind Pressure Humidity
    00:00 -1°C° 0 mm 2 mps 745 mmHg 90%
    01:00 -1°C° 0 mm 2 mps 746 mmHg 89%
    02:00 -1°C° 0 mm 2 mps 746 mmHg 88%
    03:00 -1°C° 0 mm 2 mps 746 mmHg 88%
    04:00 -1°C° 0 mm 2 mps 746 mmHg 88%
    05:00 -1°C° 0 mm 2 mps 746 mmHg 87%
    06:00 -1°C° 0 mm 2 mps 746 mmHg 87%
    07:00 -1°C° 0 mm 2 mps 747 mmHg 86%
    08:00 -1°C° 0 mm 2 mps 747 mmHg 85%
    09:00 0°C° 0 mm 3 mps 747 mmHg 86%
    10:00 0°C° 0 mm 3 mps 747 mmHg 86%
    11:00 0°C° 0 mm 3 mps 748 mmHg 87%
    12:00 +2°C° 0 mm 2 mps 748 mmHg 87%
    13:00 +2°C° 0 mm 2 mps 748 mmHg 88%
    14:00 +2°C° 0 mm 2 mps 748 mmHg 88%
    15:00 +1°C° 0 mm 2 mps 748 mmHg 89%
    16:00 +1°C° 0 mm 2 mps 748 mmHg 91%
    17:00 -1°C° 0 mm 2 mps 748 mmHg 92%
    18:00 -1°C° 0 mm 2 mps 749 mmHg 92%
    19:00 -1°C° 0 mm 2 mps 749 mmHg 92%
    20:00 -1°C° 0 mm 2 mps 750 mmHg 92%
    21:00 -1°C° 0 mm 2 mps 750 mmHg 92%
    22:00 +1°C° 0 mm 1 mps 750 mmHg 92%
    23:00 +1°C° 0 mm 1 mps 750 mmHg 92%

    21 February, Friday

    Time Temperature Precipitation Wind Pressure Humidity
    00:00 +1°C° 0 mm 1 mps 750 mmHg 91%
    01:00 -1°C° 0 mm 2 mps 750 mmHg 91%
    02:00 -1°C° 0 mm 2 mps 750 mmHg 91%
    03:00 -1°C° 0 mm 2 mps 750 mmHg 92%
    04:00 -1°C° 0 mm 2 mps 750 mmHg 92%
    05:00 -1°C° 0 mm 2 mps 750 mmHg 93%
    06:00 -1°C° 0 mm 2 mps 750 mmHg 93%
    07:00 -1°C° 0 mm 2 mps 751 mmHg 93%
    08:00 -1°C° 0 mm 2 mps 751 mmHg 93%
    15:00 0°C° 0 mm 3 mps 749 mmHg 92%
    16:00 -1°C° 0 mm 3 mps 749 mmHg 93%
    17:00 -2°C° 0 mm 3 mps 749 mmHg 93%
    18:00 -2°C° 0 mm 3 mps 749 mmHg 92%
    19:00 -2°C° 0 mm 3 mps 749 mmHg 92%
    20:00 -2°C° 0 mm 3 mps 749 mmHg 91%
    21:00 -4°C° 0 mm 3 mps 749 mmHg 90%
    22:00 -4°C° 0 mm 3 mps 749 mmHg 90%
    23:00 -4°C° 0 mm 3 mps 749 mmHg 90%

    22 February, Saturday

    Time Temperature Precipitation Wind Pressure Humidity
    00:00 -4°C° 0 mm 3 mps 749 mmHg 89%
    01:00 -4°C° 0 mm 3 mps 749 mmHg 89%
    02:00 -4°C° 0 mm 3 mps 749 mmHg 88%
    03:00 -5°C° 0 mm 3 mps 749 mmHg 89%
    04:00 -5°C° 0 mm 3 mps 749 mmHg 90%
    05:00 -5°C° 0 mm 3 mps 749 mmHg 90%
    06:00 -5°C° 0 mm 3 mps 749 mmHg 90%
    07:00 -5°C° 0 mm 3 mps 749 mmHg 91%
    08:00 -5°C° 0 mm 3 mps 749 mmHg 91%
    09:00 -4°C° 0 mm 4 mps 749 mmHg 87%
    10:00 -3°C° 0 mm 4 mps 749 mmHg 84%
    11:00 -2°C° 0 mm 4 mps 749 mmHg 81%
    12:00 -2°C° 0 mm 4 mps 749 mmHg 81%
    13:00 -1°C° 0 mm 4 mps 749 mmHg 81%
    14:00 -1°C° 0 mm 4 mps 748 mmHg 81%
    15:00 -2°C° 0 mm 4 mps 748 mmHg 84%
    16:00 -2°C° 0 mm 4 mps 747 mmHg 87%
    17:00 -3°C° 0 mm 4 mps 747 mmHg 90%
    18:00 -3°C° 0 mm 4 mps 747 mmHg 90%
    19:00 -4°C° 0 mm 5 mps 747 mmHg 90%
    20:00 -4°C° 0 mm 5 mps 746 mmHg 90%
    21:00 -3°C° 0 mm 6 mps 745 mmHg 90%
    22:00 -3°C° 0 mm 6 mps 745 mmHg 90%
    23:00 -3°C° 0 mm 6 mps 744 mmHg 90%

    23 February, Sunday

    Time Temperature Precipitation Wind Pressure Humidity
    00:00 -3°C° 0 mm 7 mps 742 mmHg 89%
    01:00 -4°C° 0 mm 8 mps 741 mmHg 88%
    02:00 -4°C° 0 mm 8 mps 740 mmHg 87%
    03:00 -4°C° 0.5 mm 9 mps 739 mmHg 89%
    04:00 -4°C° 0.5 mm 10 mps 737 mmHg 92%
    05:00 -4°C° 0.5 mm 10 mps 736 mmHg 95%
    06:00 -4°C° 0.5 mm 10 mps 734 mmHg 95%
    07:00 -4°C° 0.5 mm 9 mps 733 mmHg 95%
    08:00 -3°C° 0.5 mm 9 mps 732 mmHg 96%
    09:00 -2°C° 0.9 mm 8 mps 732 mmHg 96%
    10:00 -2°C° 0.9 mm 8 mps 731 mmHg 97%
    11:00 -2°C° 0.9 mm 7 mps 730 mmHg 98%
    12:00 -2°C° 0.2 mm 7 mps 730 mmHg 93%
    13:00 -1°C° 0.2 mm 6 mps 730 mmHg 89%
    14:00 -1°C° 0.2 mm 6 mps 730 mmHg 84%
    15:00 -1°C° 0 mm 6 mps 730 mmHg 84%
    16:00 -2°C° 0 mm 6 mps 731 mmHg 83%
    17:00 -3°C° 0 mm 6 mps 731 mmHg 83%
    18:00 -3°C° 0 mm 6 mps 731 mmHg 85%
    19:00 -3°C° 0 mm 6 mps 732 mmHg 87%
    20:00 -3°C° 0 mm 7 mps 732 mmHg 89%
    21:00 -3°C° 0 mm 6 mps 733 mmHg 88%
    22:00 -3°C° 0 mm 6 mps 733 mmHg 86%
    23:00 -4°C° 0 mm 5 mps 733 mmHg 85%
    Show more